Search for airport 
image banner adimage banner adimage banner ad
image banner ad

PS15 - Vicars Private

Located in Altoona, United States

ICAO - PS15, IATA -

Data provided by Airmate  

General information

Coordinates: N40°32'51" W78°23'30"
Elevation is 1370 feet MSL.
Magnetic variation is -09° East
View others Airports in Pennsylvania

Operational data

Special qualification required
Current time UTC:
Current local time:
Weather at : KAOO - Altoona-Blair County ( 29 km )
METAR: KAOO 131953Z AUTO 21009KT 10SM CLR 27/19 A2988 RMK AO2 SLP107 T02670194
TAF: KAOO 131734Z 1318/1418 23009KT P6SM SCT050 FM132000 27008KT P6SM -SHRA VCTS BKN040CB FM140100 28005KT P6SM SCT050 BKN150 FM140700 25004KT 1SM BR OVC008 FM141200 27008KT P6SM BKN080
View NOTAMs / SUP AIP / TFR affecting this airport [VIEW]
Communications frequencies: [VIEW]

Runways:

RWY identifierQFULength (ft)Width (ft)SurfaceLDA (ft)
081200100GRASS
261200100GRASS

Airport contact information

Address: Altoona United States

Satellite view of PS15